{"data":{"norad_id":65267,"intl_designator":"2025-182A","name":"COSMOS 2591","alt_names":[],"object_type":"PAYLOAD","status":"ACTIVE","operator":null,"country":"CIS","launch_date":"2025-08-21","launch_site_code":"PLMSC","launch_vehicle":null,"mission":null,"orbit_class":"UNKNOWN","rcs_meters":null,"size_class":null,"mass_kg":null,"dimensions":null,"purposes":[],"wikipedia_slug":null,"has_3d_model":false,"image_url":null,"decayed_at":null,"tle_current":{"epoch":"2026-09-21T12:24:42.037344Z","epoch_age_seconds":74401,"freshness":"FRESH","line1":"1 65267U 25182A   26264.51715321  .00062221  33199-5  15023-3 0  9996","line2":"2 65267  96.5780 193.6366 0008097 114.7513 245.4609 15.96464291 63065","mean_motion":15.96464291,"eccentricity":0.0008097,"inclination_deg":96.578,"raan_deg":193.6366,"arg_perigee_deg":114.7513,"mean_anomaly_deg":245.4609,"bstar":0.00015023,"rev_number":6306,"period_min":90.199324101262,"perigee_km":278.84288573488,"apogee_km":289.63193485491,"semimajor_km":6662.3744102949,"source":"CELESTRAK","updated_at":"2026-09-22T09:00:30.245564Z"}}}